sat.trackr.live / text

‹ back to catalog

BULGARIASAT-1

NORAD 42801 · 2017-038A

PAYLOAD ACTIVE UNKNOWN

§ Identity

Operator
Country
BUL
Launch date
2017-06-23
Launch site
AFETR
Launch vehicle
Mass (kg)
RCS (m²)

Purposes: comms

External: N2YO · Heavens-Above · Gunter

§ Orbital elements

Epoch: 2026-05-25T02:02:32.601120Z

Period
1,436.16 min
Inclination
0.0197°
Eccentricity
0.0003546
Mean motion
1.00267545 rev/d
Perigee alt
35,772.8 km
Apogee alt
35,802.7 km
Semi-major
42,165.9 km
B*
0.0000e+0
RAAN
57.9077°
Arg perigee
21.4159°
Mean anomaly
195.8855°
Rev number
3,261

§ Raw data

BULGARIASAT-11 42801U 17038A   26145.08509955  .00000000  00000+0  00000+0 0  99912 42801   0.0197  57.9077 0003546  21.4159 195.8855  1.00267545 32612

JSON: /api/v1/satellites/42801 · /tle

For live sub-satellite position, see the globe view (requires WebGL).

§ Visibility from observer

Set your observer location to see the next 7 days of passes ≥ 10°. The values pass through the URL so the page stays shareable.

No JS? Fill the form by hand. The geolocation button needs JavaScript.